[Iaude] MPEC L87: 2024 LZ1 [a=2.20,e=0.54,i=7.8,H=26.4]
    mpec at cfa.harvard.edu 
    mpec at cfa.harvard.edu
       
    Sat Jun  8 07:15:31 EDT 2024
    
    
  
M.P.E.C. 2024-L87                                  Issued 2024 June 8, 11:13 UT
     The Minor Planet Electronic Circulars contain information on unusual
         minor planets, routine data on comets and natural satellites,
         and occasional editorial announcements.  They are published
    on behalf of Division F of the International Astronomical Union by the
          Minor Planet Center, Smithsonian Astrophysical Observatory,
                          Cambridge, MA 02138, U.S.A.
			  
             Prepared using the Tamkin Foundation Computer Network
                              MPC at CFA.HARVARD.EDU
            URL https://www.minorplanetcenter.net/    ISSN 1523-6714
                                    2024 LZ1                                    
Observations:
     K24L01Z*1C2024 06 07.21646413 40 59.730-04 37 42.70               VEL087G96
     K24L01Z 1C2024 06 07.22168513 41 06.520-04 34 40.20               VEL087G96
     K24L01Z 1C2024 06 07.22690613 41 13.320-04 31 37.50         18.76GVEL087G96
     K24L01Z 1C2024 06 07.23212813 41 20.140-04 28 33.40         18.75GVEL087G96
     K24L01Z KC2024 06 07.25280613 41 47.432-04 16 21.72         18.93GVEL087I52
     K24L01Z KC2024 06 07.25332513 41 48.127-04 16 03.43         19.24GVEL087I52
     K24L01Z KC2024 06 07.25385313 41 48.844-04 15 44.42         18.61GVEL087I52
     K24L01Z KC2024 06 07.25437113 41 49.499-04 15 26.21         19.03GVEL087I52
     K24L01Z KC2024 06 07.28477713 43 06.643-03 46 14.48         18.8 GVEL087474
     K24L01Z KC2024 06 07.28520713 43 07.226-03 45 59.00         19.1 GVEL087474
     K24L01Z KC2024 06 07.28563813 43 07.831-03 45 43.67         19.8 GVEL087474
     K24L01Z KC2024 06 07.28606713 43 08.400-03 45 28.26         19.3 GVEL087474
     K24L01Z KC2024 06 07.28649713 43 09.065-03 45 12.38         18.6 GVEL087474
     K24L01Z KC2024 06 07.28692613 43 09.629-03 44 57.16         19.0 GVEL087474
     K24L01Z KC2024 06 07.39835513 45 46.757-02 35 50.82         19.1 GVEL087474
     K24L01Z KC2024 06 07.39921413 45 47.962-02 35 17.81         19.1 GVEL087474
     K24L01Z KC2024 06 07.40007313 45 49.212-02 34 45.12         19.2 GVEL087474
     K24L01Z KC2024 06 07.40093213 45 50.460-02 34 11.71         19.4 GVEL087474
     K24L01Z KC2024 06 07.40179213 45 51.715-02 33 39.38         18.9 GVEL087474
     K24L01Z KB2024 06 07.46214713 47 36.399-02 06 25.71         18.9 VZEL087Q06
     K24L01Z KB2024 06 07.46810113 47 45.109-02 02 31.01         18.0 VZEL087Q06
     K24L01Z KB2024 06 07.47405513 47 53.980-01 58 33.85         18.9 VZEL087Q06
     K24L01Z KB2024 06 07.64568 13 52 31.86 -00 01 00.2          19.3 GVEL087P13
     K24L01Z KB2024 06 07.64987 13 52 38.80 +00 02 01.7          18.8 GVEL087P13
     K24L01Z KB2024 06 07.65318 13 52 44.31 +00 04 24.2          18.8 GVEL087P13
     K24L01Z KC2024 06 07.83824213 58 54.62 +02 23 17.2                XEL087595
     K24L01Z KC2024 06 07.84289013 59 03.09 +02 26 57.4          18.9 GXEL087595
     K24L01Z KC2024 06 07.84751013 59 11.55 +02 30 37.1          18.4 GXEL087595
     K24L01Z KC2024 06 07.85759 13 59 31.15 +02 38 55.4          18.6 GXEL087K83
     K24L01Z KC2024 06 07.86048 13 59 36.47 +02 41 13.8          18.8 GXEL087K83
     K24L01Z KC2024 06 07.86338 13 59 41.85 +02 43 33.0          19.2 GXEL087K83
     K24L01Z KC2024 06 07.86532 13 59 42.15 +02 44 21.1          18.8 GXEL087G02
     K24L01Z KB2024 06 07.86902813 59 53.129+02 47 17.16         19.0 VZEL087K74
     K24L01Z KC2024 06 07.87332 13 59 57.13 +02 50 46.2          18.7 GXEL087G02
     K24L01Z KB2024 06 07.87416914 00 02.748+02 51 24.41         19.3 VZEL087K74
     K24L01Z KB2024 06 07.87748514 00 10.214+02 53 57.60         18.5 GXEL087B72
     K24L01Z KB2024 06 07.88102514 00 15.581+02 56 55.25         19.5 VZEL087K74
     K24L01Z KB2024 06 07.88249414 00 19.601+02 58 00.00         18.8 GXEL087B72
     K24L01Z KB2024 06 07.88758614 00 29.210+03 02 06.27         19.1 GXEL087B72
     K24L01Z KC2024 06 07.90084 14 00 49.31 +03 14 12.3                VEL087C82
     K24L01Z KC2024 06 07.90607 14 00 59.16 +03 18 26.3          19.0 GVEL087C82
     K24L01Z 2C2024 06 07.91657714 01 35.521+03 29 00.52         18.2 GVEL087J04
     K24L01Z 2C2024 06 07.91677314 01 35.905+03 29 09.87         18.8 GVEL087J04
     K24L01Z 2C2024 06 07.91696614 01 36.279+03 29 19.53         18.7 GVEL087J04
     K24L01Z KB2024 06 07.96274514 03 20.337+04 15 58.32         18.8 VZEL087Y05
     K24L01Z KB2024 06 07.96802514 03 30.340+04 20 26.92         19.5 VZEL087Y05
     K24L01Z KB2024 06 07.97322614 03 40.207+04 24 50.32         19.6 VZEL087Y05
     K24L01Z 1C2024 06 08.00456 14 04 19.21 +04 39 08.9          20.3 VXEL087033
     K24L01Z 1C2024 06 08.00490 14 04 19.92 +04 39 26.5          19.5 VXEL087033
     K24L01Z 1C2024 06 08.00523 14 04 20.61 +04 39 43.5          19.8 VXEL087033
     K24L01Z KC2024 06 08.07816314 07 26.21 +05 44 53.2          18.3 GVEL087932
     K24L01Z KC2024 06 08.10237814 08 16.55 +06 06 28.5          19.3 GVEL087932
     K24L01Z KC2024 06 08.10969714 08 31.89 +06 13 03.4          19.3 GVEL087932
Observer details:
033 Karl Schwarzschild Observatory, Tautenburg.  Observers C. Heogner, F.
    Ludwig, M. Hartmann, B. Stecklum.  Measurer B. Stecklum.  1.34-m f/3
    Schmidt + CCD.
474 Mount John Observatory, Lake Tekapo.  Observers A. C. Gilmore, P. M.
    Kilmartin.  Measurer P. M. Kilmartin.  1.0-m f/7.7 Reflector + CCD.
595 Farra d'Isonzo.  Observer E. Pettarin.  0.61-m f/4.5 reflector + CCD.
932 John J. McCarthy Obs., New Milford.  Observer M. Robson.  Measurer W.
    Cloutier.  0.43 -m f/6.8 reflector+CCD.
B72 Soerth Observatory.  Observer B. Koch.  0.36-m f/7.6 reflector + CMO.
C82 Osservatorio Astronomico Nastro Verde, Sorrento.  Observer N. Ruocco.
    0.35-m f/6.3  Schmidt-Cassegrain + CCD.
G02 KYSUCE Observatory, Kysucke Nove Mesto.  Observer M. Urbanik.  0.40-m
    f/6.8 Corrected Dall-Kirkham + CCD.
G96 Mt. Lemmon Survey.  Observer J. K. Hogan.  Measurers T. Beuden, V. F.
    Carvajal, D. Fay, J. B. Fazekas, D. C. Fuls, A. R. Gibbs, A. D. Grauer, H.
    Groeller, J. K. Hogan, R. A. Kowalski, S. M. Larson, G. J. Leonard, D.
    Rankin, R. L. Seaman, F. C. Shelly, K. W. Wierzchos.  1.5-m reflector +
    10K CCD.
I52 Steward Observatory, Mt. Lemmon Station.  Observer R. A. Kowalski.
    Measurers T. Beuden, V. F. Carvajal, D. Fay, J. B. Fazekas, D. C. Fuls, A.
    R. Gibbs, A. D. Grauer, H. Groeller, J. K. Hogan, R. A. Kowalski, S. M.
    Larson, G. J. Leonard, D. Rankin, R. L. Seaman, F. C. Shelly, K. W.
    Wierzchos.  1.0-m prime focus + CCD.
J04 ESA Optical Ground Station, Tenerife.  Observers D. Abreu, M. Micheli, F.
    Ocana, L. Conversi.  Measurers M. Micheli, R. Kresken, F. Ocana.
    1.0-m f/4.4 reflector + CCD.
K74 Muensterschwarzach Observatory, Schwarzach.  Observer C. Gerhard.  0.30-m
    f/3.75 reflector + CMO.
K83 Beppe Forti Astronomical Observatory, Montelupo.  Observers M. Tombelli,
    G. Interrante, L. Grazzini, A. Mazzanti, M. Calamandrei, T. Bitossi.
    Measurers M. Tombelli, F. Bernardi, A. Squilloni, F. Cheli.  0.40-m f/8
    Ritchey-Chretien + CCD.
P13 Baihuashan Observatory, Beijing.  Observers Z. Wang, B. Liu.  Measurer Z.
    Wang.  0.28-m f/2.2 reflector + CMO.
Q06 Tarui Observatory, Tarui.  Observer H. Watanabe.  0.35-m f/1.9 Schmidt-
    Cassegrain + CMO.
Y05 SONEAR Wykrota-CEAMIG, Serra da Piedade.  Observers C. Jacques, A.
    Caetano, E. Pimentel.  Measurer C. Jacques.  0.45-m f/2.9 reflector + CMO.
Orbital elements:
2024 LZ1                                                 Earth MOID = 0.0090 AU
Epoch 2024 Mar. 31.0 TT = JDT 2460400.5                 Veres                   
M 334.74333              (2000.0)            P               Q                  
n   0.30293993     Peri.   18.79151     +0.06727360     +0.98897929             
a   2.1956597      Node   255.23307     -0.93199210     +0.01510010             
e   0.5411581      Incl.    7.83913     -0.35618111     +0.14728190             
P   3.25           H   26.40          G   0.15           U   7                  
Residuals in seconds of arc
240607 G96  0.7-  0.0     240607 474  0.4+  0.3-    240607 K74  0.2+  0.2+
240607 G96  0.2-  0.0     240607 Q06  0.0   0.6-    240607 B72  0.0   0.4+
240607 G96  0.0   0.3-    240607 Q06  0.4-  0.5-    240607 B72  0.2+  0.1+
240607 G96  0.0   0.2+    240607 Q06  1.2+  1.4+    240607 C82 (1.3+  1.4+)
240607 I52  0.0   0.1+    240607 P13  0.2+  0.6-    240607 C82 (1.2+  0.1-)
240607 I52  0.0   0.1-    240607 P13  0.2+  0.6+    240607 J04  0.2-  0.0
240607 I52  0.2+  0.1+    240607 P13  0.2+  0.1+    240607 J04  0.2+  0.3-
240607 I52  0.3-  0.1-    240607 595  0.5-  0.1+    240607 J04  0.4+  0.2-
240607 474  0.1+  0.2+    240607 595  0.5-  0.2-    240607 Y05  0.4-  0.3-
240607 474  0.1-  0.1+    240607 595  0.1-  0.1-    240607 Y05  0.2-  0.8+
240607 474  0.1-  0.1-    240607 K83  0.1-  0.0     240607 Y05  0.1-  0.2+
240607 474  0.5-  0.2-    240607 K83  0.2+  0.1+    240608 033  0.0   0.3-
240607 474  0.5+  0.2+    240607 K83  1.0+  0.3+    240608 033  0.0   0.1-
240607 474  0.0   0.1-    240607 G02 (1.3-  0.7-)   240608 033  0.0   0.0
240607 474  0.2+  0.0     240607 K74  0.1+  0.4+    240608 932  0.4-  0.2+
240607 474  0.2-  0.1+    240607 G02  0.7-  0.0     240608 932  0.2+  0.2-
240607 474  0.0   0.1-    240607 K74  0.4+  0.3+    240608 932  0.0   0.4+
240607 474  0.2+  0.4+    240607 B72  0.3+  0.0
Ephemeris:
2024 LZ1                 a,e,i = 2.20, 0.54, 8                   q = 1.0075
Date    TT    R. A. (2000) Decl.     Delta      r    Elong.  Phase     V
2024 05 09    12 30 27.2 -34 00 50   0.1682  1.1465   141.8    33.0    24.2
...
2024 05 24    12 27 25.5 -31 30 20   0.08791 1.0721   130.8    45.7    23.0
...
2024 06 01    12 41 01.8 -26 28 36   0.04655 1.0425   126.7    51.3    21.7
...
2024 06 07    13 36 04.6 -06 32 10   0.01750 1.0258   128.2    51.1    19.6
2024 06 08    14 04 30.8 +04 42 33   0.01369 1.0235   128.0    51.4    19.0
2024 06 09    14 53 02.9 +22 25 26   0.01110 1.0214   123.8    55.6    18.7
...
2024 06 15    22 35 33.0 +50 00 15   0.02968 1.0116    81.2    97.2    22.3
...
2024 06 23    23 31 53.2 +42 21 00   0.06982 1.0073    80.6    95.5    24.0
...
2024 07 08    23 51 47.2 +39 12 00   0.1429  1.0262    89.8    82.2    25.1
M. P. C. Staff               (C) Copyright 2024 MPC           M.P.E.C. 2024-L87
    
    
More information about the Iaude
mailing list